Regional Weather Roundup
Issued by NWS

Home | Current Version | Previous Version | Text Only | Print | Product List | Glossary On
Versions: 1 2 3 4 5 6 7 8 9 10 11 12 13 14 15 16 17 18 19 20 21 22 23 24 25 26 27 28 29 30 31 32 33 34 35 36 37 38 39 40 41 42 43 44 45 46 47 48 49 50
000
ASUS43 KLOT 242209
RWRIL

ILLINOIS REGIONAL WEATHER ROUNDUP
NATIONAL WEATHER SERVICE CHICAGO/ROMEOVILLE IL
500 PM CDT SUN SEP 24 2017

NOTE: "FAIR" INDICATES FEW OR NO CLOUDS BELOW 12,000 FEET WITH NO
SIGNIFICANT WEATHER AND/OR OBSTRUCTIONS TO VISIBILITY.

* THESE STATIONS ARE NOT UNDER NWS QUALITY CONTROL. THEY ALSO MAY NOT
  REPORT WEATHER SUCH AS PRECIPITATION OR FOG.

ILZ001-002-007-009-015-016-024-242300-
NORTHWEST ILLINOIS

CITY           SKY/WX    TMP DP  RH WIND       PRES   REMARKS
MOLINE         SUNNY     89  62  40 S6        29.95F HX  89
STERLING*      MOSUNNY   90  62  39 VRB6      29.98F HX  90
SAVANNA*       MOSUNNY   90  63  40 SW6       29.98S HX  90
$$

ILZ003-004-008-010-011-017-018-242300-
NORTH CENTRAL ILLINOIS

CITY           SKY/WX    TMP DP  RH WIND       PRES   REMARKS
ROCKFORD       MOSUNNY   88  59  37 S12       30.00F HX  87
FREEPORT*      SUNNY     86  60  40 S8        30.01S HX  86
ROCHELLE*      MOSUNNY   89  61  38 S6        30.01S HX  89
DE KALB*       SUNNY     88  60  38 S8        30.02S HX  87
PERU*          MOSUNNY   88  60  38 SW6       29.99S HX  87
$$

ILZ005-006-012>014-019>023-242300-
NORTHEAST ILLINOIS

CITY           SKY/WX    TMP DP  RH WIND       PRES   REMARKS
CHICAGO-OHARE  MOSUNNY   91  56  30 S13       30.00S HX  89
CHICAGO-MIDWAY MOSUNNY   89  60  37 E13       30.00S HX  89
AURORA         MOSUNNY   89  61  38 SE8       30.00F HX  89
LANSING*       MOSUNNY   89  63  41 S8        30.01S HX  90
JOLIET*        SUNNY     91  61  37 SE7       30.00S HX  91
WAUKEGAN       SUNNY     83  64  52 SE8       30.01F HX  84
DUPAGE AIRPORT SUNNY     88  60  38 S9        30.00F HX  87
KANKAKEE*      SUNNY     89  61  39 S6        30.02S HX  89
WHEELING       SUNNY     88  61  40 E12       30.01F HX  88
MORRIS*        MOSUNNY   90  60  35 E5        29.98F HX  89
ROMEOVILLE*    SUNNY     89  58  35 S7        30.01S HX  88
NORTHERLY ISL    N/A     79  66  64 NE8         N/A  HX  81
$$

LMZ740>746-242300-
SOUTHERN LAKE MICHIGAN

STATION/POSITION SKY/WX   TEMP    WIND        PRES    VSBY  WAVE
                          AIR SEA DIR/SP/G                  HT/PER
                          (F)     (DEG/KT/KT) (MB)    (MI)  (FT/S)
SOUTHERN BUOY              75 72  120/  2/  4 1016.8F         0
WILMETTE HARBOR            76 72   90/  8/ 10   N/A           1/ 2
HARRISON CRIB              81      80/ 15/ 15   N/A
BURNHAM HARBOR             79                   N/A
CALUMET HARBOR             79      50/  7/ 10 1015.7F
BURNS HARBOR               79      50/  4/  6 1016.6F
MICHIGAN CITY              80      30/  9/ 10   N/A
MICHIGAN CITY 6N           78 73   50/  6/ 10   N/A           1
ST. JOSEPH                 76 74   60/  4/  6 1016.4          0
$$

ILZ025>027-034>036-040-047-049-050-058-095>099-242300-
WEST-CENTRAL ILLINOIS

CITY           SKY/WX    TMP DP  RH WIND       PRES   REMARKS
QUINCY         SUNNY     89  61  38 SE12      29.95F HX  89
GALESBURG*     MOSUNNY   88  61  40 S9        29.98F HX  88
MACOMB*        SUNNY     90  59  34 S7        29.99S HX  89
JACKSONVILLE*  PTSUNNY   90  59  35 S8        29.96S HX  89
PITTSFIELD*    SUNNY     91  62  38 SW6       29.97S HX  91
$$

ILZ028>032-037-038-041>044-048-051>054-059>061-242300-
CENTRAL ILLINOIS

CITY           SKY/WX    TMP DP  RH WIND       PRES   REMARKS
PONTIAC        SUNNY     91  58  32 SE6       30.00S HX  90
BLOOMINGTON    SUNNY     88  61  40 S7        30.01S HX  88
DECATUR        PTSUNNY   92  56  29 VRB3      29.98F HX  90
PEORIA         MOSUNNY   90  59  35 SE8       29.97F HX  89
LACON*         SUNNY     91  62  38 CALM      29.97F HX  91
LINCOLN*       SUNNY     92  60  33 S8        29.97S HX  91
SPRINGFIELD    SUNNY     93  59  31 SE10      29.96F HX  92
TAYLORVILLE    SUNNY     91  57  31 SE5       29.97S HX  90
$$

ILZ033-039-045-046-055>057-062-063-242300-
EAST-CENTRAL ILLINOIS

CITY           SKY/WX    TMP DP  RH WIND       PRES   REMARKS
CHAMPAIGN      PTSUNNY   92  53  26 SW5       29.99F HX  89
RANTOUL*       SUNNY     92  59  32 SE6       29.99F HX  91
MATTOON        SUNNY     90  59  35 S6        29.98S HX  89
PARIS*         SUNNY     91  59  34 SE9       30.01S HX  89
$$

ILZ079-100>102-242300-
SOUTHWEST ILLINOIS

CITY           SKY/WX    TMP DP  RH WIND       PRES   REMARKS
ALTON          MOSUNNY   90  64  43 SE6       29.96F HX  91
BELLEVILLE     SUNNY     90  61  37 S3        29.94S HX  90
CAHOKIA*       MOSUNNY   94  60  32 E6        29.94F HX  94
SPARTA*        SUNNY     90  62  39 S3        29.96S HX  91
$$

ILZ064>066-069>071-074>076-080>082-084>086-088>090-092>094-242300-
SOUTH-CENTRAL ILLINOIS

CITY           SKY/WX    TMP DP  RH WIND       PRES   REMARKS
CARBONDALE     MOSUNNY   83  68  60 S7        29.96R HX  86
CAIRO*         PTSUNNY   80  67  66 NE13      30.00R HX  82
EFFINGHAM*     MOSUNNY   93  58  30 E6        29.98F HX  92
MARION         PTSUNNY   90  61  37 W6        29.97S HX  89
MT. VERNON       N/A     92  57  30 NE10      29.96S HX  90
CENTRALIA*     MOSUNNY   94  59  30 NE5       29.95S HX  93
SALEM*         SUNNY     94  55  27 E5        29.96S HX  91
METROPOLIS*    SUNNY     90  64  43 S3        29.97R HX  91
$$

ILZ067-068-072-073-078-083-087-091-242300-
SOUTHEAST ILLINOIS

CITY           SKY/WX    TMP DP  RH WIND       PRES   REMARKS
LAWRENCEVILLE  MOSUNNY   86  64  47 E8        29.98S HX  87
FLORA*         MOSUNNY   90  60  36 SE6       29.97S HX  89
FAIRFIELD*     SUNNY     92  56  28 CALM      29.95S HX  90
HARRISBURG*    SUNNY     90  61  38 E7        29.96S HX  90
ROBINSON*      SUNNY     90  59  35 SE7       29.99S HX  89
CARMI*         SUNNY     92  61  35 E9        29.96S HX  91
$$

ABBREVIATIONS USED IN REMARKS
   TC - TEMPERATURE IN CELSIUS
  WCI - WIND CHILL INDEX
   HX - HEAT INDEX
  VSB - VISIBILITY
$$





USA.gov is the U.S. government's official web portal to all federal, state and local government web resources and services.